Location: Ash Shall?l al Awwal
(24.0167°N, 32.8667°E)
Time: 18:49:11
(UTC+00:00)

Meteor 1-11 Rocket - Pass Details

Date: 02 March 2021
Orbit: 831 x 916 km, 81.2° (Epoch: 09 April)

Event Time Altitude Azimuth Distance (km) Brightness Sun altitude
Rises 17:39:52 0° 188° (S) 3,501 7.0 -25.4°
Reaches altitude 10° 17:42:20 10° 189° (S) 2,552 6.2 -26.0°
Maximum altitude 17:48:09 81° 276° (W) 892 3.8 -27.3°
Drops below altitude 10° 17:53:51 10° 4° (N) 2,504 6.1 -28.6°
Sets 17:56:16 0° 5° (N) 3,430 6.9 -29.2°
